Location: Arran
(51.9410°N, 101.7372°W)
Time: 07:37:01
(UTC+00:00)

SWISSCUBE - Pass Details

Date: 15 May 2025
Orbit: 685 x 693 km, 98.4° (Epoch: 20 June)

Event Time Altitude Azimuth Distance (km) Brightness Sun altitude
Rises 05:55:33 0° 14° (NNE) 3,075 ? -18.4°
Reaches altitude 10° 05:57:48 10° 15° (NNE) 2,155 ? -18.4°
Maximum altitude 06:02:32 88° 295° (WNW) 700 ? -18.6°
Enters shadow 06:04:35 34° 198° (SSW) 1,130 ? -18.6°
